COSMOS 2434 (721)

Last updated on Jan. 22, 2020, 4:37 a.m. UTC

1 32393U 07065A   20021.51576981  .00000026  00000-0  00000+0 0  9992
2 32393  64.6290 271.4970 0004025  76.9673 105.8207  2.13103014 93963
UTC
Height (km)
Latitude
Longitude
Inclination
Orbital Period
UTC large
Height (km)
Speed (km/s)
/
Latitude / Longitude
Inclination (degrees)
Orbital Period (minutes)
Azimuth
Elevation
Range (km)
Doppler Factor
iOS Compass Heading
iOS Angle

Next 30 passes for location: Hong Kong

Rise time Rise Azimuth (degrees) Set time Set Azimuth (degrees) Duration Max altitude (degrees)

No matching passes for this satellites